Watford City, ND

7:17 PM CST on February 27, 2017 (GMT -0600)
Watford City

Weather History for KS25 - November, 2011

Change the Weather History Date:

Tuesday, November 8, 2011

  Actual Average (KISN) Record (KISN)
Temperature  
Mean Temperature 26 °F -  
Max Temperature 41 °F 39 °F 70 °F (1999)
Min Temperature 10 °F 20 °F -14 °F (1895)
Degree Days  
Heating Degree Days 40    
Moisture  
Dew Point 18 °F    
Average Humidity 75    
Maximum Humidity 93    
Minimum Humidity 49    
Precipitation  
Precipitation 0.00 in - - ()
Sea Level Pressure  
Sea Level Pressure 30.04 in    
Wind  
Wind Speed 4 mph (West)    
Max Wind Speed 20 mph    
Max Gust Speed 28 mph    
Visibility 10 miles    
Events      
Averages and records for this station are not official NWS values.
T = Trace of Precipitation, MM = Missing Value Source: NWS Daily Summary

Daily Weather History Graph

Daily Weather History Graph

Search for Another Location

Airport or City:

Trip Planner

Search our weather history database for the weather conditions in past years. The results will help you decide how hot, cold, wet, or windy it might be!

Date:

Astronomy

Nov. 08, 2011 Rise Set
Actual Time 7:47 AM CST 5:25 PM CST
Civil Twilight 7:14 AM CST 5:58 PM CST
Nautical Twilight 6:37 AM CST 6:34 PM CST
Astronomical Twilight 6:01 AM CST 7:11 PM CST
Moon 4:09 PM CST (11/8) 5:44 AM CST (11/8)
Length of Visible Light 10h 43m
Length of Day
9h 37m
Waxing Gibbous, 96% of the Moon is Illuminated
Nov 8
Waxing Gibbous
Nov 10
Full
Nov 18
Last Quarter
Nov 25
New
Dec 2
First Quarter

Hourly Weather History & Observations

Time (CST) Temp. Windchill Dew Point Humidity Pressure Visibility Wind Dir Wind Speed Gust Speed Precip Events Conditions
12:15 AM 17.6 °F - 15.8 °F 93% 30.06 in 10.0 mi Calm Calm - N/A   Clear
12:35 AM 15.8 °F - 14.0 °F 93% 30.06 in 10.0 mi Calm Calm - N/A   Clear
12:55 AM 17.6 °F - 14.0 °F 86% 30.05 in 10.0 mi Calm Calm - N/A   Clear
1:15 AM 14.0 °F - 10.4 °F 86% 30.05 in 10.0 mi Calm Calm - N/A   Clear
1:35 AM 14.0 °F - 12.2 °F 93% 30.04 in 10.0 mi Calm Calm - N/A   Clear
1:55 AM 14.0 °F - 10.4 °F 86% 30.04 in 10.0 mi Calm Calm - N/A   Clear
2:15 AM 14.0 °F - 10.4 °F 86% 30.04 in 10.0 mi Calm Calm - N/A   Clear
2:35 AM 14.0 °F - 10.4 °F 86% 30.04 in 10.0 mi Calm Calm - N/A   Clear
2:55 AM 14.0 °F - 10.4 °F 86% 30.04 in 10.0 mi Calm Calm - N/A   Clear
3:15 AM 15.8 °F - 14.0 °F 93% 30.04 in 10.0 mi Calm Calm - N/A   Clear
3:35 AM 14.0 °F - 10.4 °F 86% 30.04 in 10.0 mi Calm Calm - N/A   Clear
3:55 AM 14.0 °F - 12.2 °F 93% 30.03 in 10.0 mi Calm Calm - N/A   Clear
4:35 AM 10.4 °F - 8.6 °F 92% 30.02 in 10.0 mi Calm Calm - N/A   Clear
4:55 AM 14.0 °F - 10.4 °F 86% 30.03 in 10.0 mi Calm Calm - N/A   Clear
5:15 AM 12.2 °F - 8.6 °F 85% 30.02 in 10.0 mi Calm Calm - N/A   Clear
5:35 AM 14.0 °F 6.5 °F 10.4 °F 86% 30.02 in 10.0 mi SW 4.6 mph - N/A   Clear
5:55 AM 14.0 °F - 10.4 °F 86% 30.02 in 10.0 mi Calm Calm - N/A   Clear
6:15 AM 14.0 °F - 10.4 °F 86% 30.02 in 10.0 mi Calm Calm - N/A   Clear
6:35 AM 14.0 °F - 10.4 °F 86% 30.02 in 10.0 mi Calm Calm - N/A   Clear
6:55 AM 10.4 °F - 8.6 °F 92% 30.01 in 10.0 mi Calm Calm - N/A   Clear
7:35 AM 14.0 °F - 10.4 °F 86% 30.02 in 10.0 mi Calm Calm - N/A   Clear
7:55 AM 14.0 °F 6.5 °F 10.4 °F 86% 30.03 in 10.0 mi SW 4.6 mph - N/A   Clear
8:15 AM 15.8 °F 7.2 °F 12.2 °F 86% 30.03 in 10.0 mi SW 5.8 mph - N/A   Clear
8:35 AM 15.8 °F - 14.0 °F 93% 30.03 in 10.0 mi Calm Calm - N/A   Clear
8:55 AM 19.4 °F - 15.8 °F 86% 30.03 in 10.0 mi Calm Calm - N/A   Clear
9:15 AM 21.2 °F 14.9 °F 17.6 °F 86% 30.03 in 10.0 mi WSW 4.6 mph - N/A   Clear
9:35 AM 23.0 °F 15.8 °F 19.4 °F 86% 30.04 in 10.0 mi WSW 5.8 mph - N/A   Clear
9:55 AM 26.6 °F 21.2 °F 21.2 °F 80% 30.03 in 10.0 mi SW 4.6 mph - N/A   Clear
10:15 AM 28.4 °F 21.2 °F 23.0 °F 80% 30.03 in 10.0 mi SW 6.9 mph - N/A   Clear
10:35 AM 30.2 °F 22.6 °F 24.8 °F 80% 30.03 in 10.0 mi WSW 8.1 mph - N/A   Clear
10:55 AM 32.0 °F 26.4 °F 24.8 °F 75% 30.03 in 10.0 mi SW 5.8 mph - N/A   Clear
11:15 AM 32.0 °F 23.0 °F 24.8 °F 75% 30.03 in 10.0 mi SW 11.5 mph - N/A   Clear
11:35 AM 35.6 °F 25.9 °F 23.0 °F 60% 30.02 in 10.0 mi WSW 16.1 mph - N/A   Clear
11:55 AM 35.6 °F 27.1 °F 23.0 °F 60% 30.02 in 10.0 mi WSW 12.7 mph 19.6 mph N/A   Partly Cloudy
12:15 PM 35.6 °F 27.1 °F 23.0 °F 60% 30.02 in 10.0 mi SW 12.7 mph - N/A   Clear
12:35 PM 37.4 °F 29.8 °F 24.8 °F 60% 30.01 in 10.0 mi SW 11.5 mph 18.4 mph N/A   Clear
12:55 PM 39.2 °F 31.6 °F 23.0 °F 52% 30.01 in 10.0 mi WSW 12.7 mph 19.6 mph N/A   Clear
1:15 PM 41.0 °F 32.8 °F 23.0 °F 49% 30.01 in 10.0 mi West 16.1 mph - N/A   Clear
1:35 PM 41.0 °F 32.8 °F 23.0 °F 49% 30.01 in 10.0 mi West 16.1 mph 21.9 mph N/A   Clear
2:15 PM 41.0 °F 31.9 °F 23.0 °F 49% 30.01 in 10.0 mi West 19.6 mph 24.2 mph N/A   Clear
2:35 PM 41.0 °F 32.2 °F 23.0 °F 49% 30.01 in 10.0 mi West 18.4 mph 27.6 mph N/A   Clear
2:55 PM 41.0 °F 32.2 °F 23.0 °F 49% 30.01 in 10.0 mi West 18.4 mph 26.5 mph N/A   Clear
3:15 PM 41.0 °F 32.5 °F 23.0 °F 49% 30.02 in 10.0 mi West 17.3 mph 24.2 mph N/A   Clear
3:35 PM 41.0 °F 31.9 °F 23.0 °F 49% 30.03 in 10.0 mi West 19.6 mph 24.2 mph N/A   Clear
3:55 PM 41.0 °F 31.9 °F 23.0 °F 49% 30.03 in 10.0 mi West 19.6 mph 24.2 mph N/A   Clear
4:15 PM 39.2 °F 31.2 °F 24.8 °F 56% 30.04 in 10.0 mi West 13.8 mph - N/A   Clear
4:35 PM 39.2 °F 32.5 °F 24.8 °F 56% 30.05 in 10.0 mi WNW 10.4 mph - N/A   Clear
4:55 PM 39.2 °F 32.0 °F 24.8 °F 56% 30.05 in 10.0 mi WNW 11.5 mph - N/A   Clear
5:15 PM 37.4 °F 30.8 °F 24.8 °F 60% 30.06 in 10.0 mi West 9.2 mph 16.1 mph N/A   Clear
5:35 PM 35.6 °F 29.2 °F 24.8 °F 65% 30.07 in 10.0 mi West 8.1 mph - N/A   Clear
5:55 PM 35.6 °F 28.0 °F 24.8 °F 65% 30.07 in 10.0 mi West 10.4 mph - N/A   Clear
6:15 PM 33.8 °F 26.4 °F 24.8 °F 70% 30.09 in 10.0 mi WNW 9.2 mph - N/A   Clear
6:35 PM 32.0 °F 24.8 °F 24.8 °F 75% 30.09 in 10.0 mi West 8.1 mph - N/A   Clear
6:55 PM 32.0 °F 24.2 °F 23.0 °F 69% 30.10 in 10.0 mi West 9.2 mph - N/A   Clear
7:15 PM 32.0 °F 24.8 °F 24.8 °F 75% 30.10 in 10.0 mi WNW 8.1 mph - N/A   Clear
7:35 PM 32.0 °F 24.2 °F 24.8 °F 75% 30.11 in 10.0 mi West 9.2 mph - N/A   Clear
7:55 PM 32.0 °F 24.2 °F 24.8 °F 75% 30.11 in 10.0 mi West 9.2 mph - N/A   Clear
8:15 PM 32.0 °F 22.5 °F 24.8 °F 75% 30.12 in 10.0 mi West 12.7 mph - N/A   Clear
8:35 PM 30.2 °F 21.3 °F 23.0 °F 75% 30.12 in 10.0 mi West 10.4 mph - N/A   Clear
8:55 PM 28.4 °F 18.0 °F 23.0 °F 80% 30.13 in 10.0 mi West 12.7 mph - N/A   Clear
9:15 PM 28.4 °F 19.1 °F 23.0 °F 80% 30.14 in 10.0 mi West 10.4 mph - N/A   Clear
9:35 PM 28.4 °F 18.0 °F 23.0 °F 80% 30.15 in 10.0 mi West 12.7 mph - N/A   Clear
9:55 PM 28.4 °F 18.0 °F 23.0 °F 80% 30.15 in 10.0 mi West 12.7 mph - N/A   Clear
10:15 PM 26.6 °F 17.5 °F 23.0 °F 86% 30.16 in 10.0 mi West 9.2 mph - N/A   Clear
10:35 PM 24.8 °F 16.9 °F 23.0 °F 93% 30.18 in 10.0 mi West 6.9 mph - N/A   Clear
11:15 PM 24.8 °F 14.6 °F 23.0 °F 93% 30.19 in 10.0 mi West 10.4 mph - N/A   Clear
11:35 PM 24.8 °F 16.1 °F 21.2 °F 86% 30.20 in 10.0 mi West 8.1 mph - N/A   Clear
11:55 PM 24.8 °F 16.9 °F 21.2 °F 86% 30.20 in 10.0 mi West 6.9 mph - N/A   Clear